Haleyville, AL

3:26 PM CDT on October 21, 2017 (GMT -0500)
Haleyville

Weather History for K1M4 - November, 2012

Change the Weather History Date:

Saturday, November 17, 2012

  Actual Average (KJFX) Record (KJFX)
Temperature  
Mean Temperature 47 °F -  
Max Temperature 63 °F 63 °F 82 °F (2016)
Min Temperature 31 °F 36 °F 19 °F (1970)
Degree Days  
Heating Degree Days 18    
Moisture  
Dew Point 32 °F    
Average Humidity 67    
Maximum Humidity 96    
Minimum Humidity 29    
Precipitation  
Precipitation 0.00 in - - ()
Sea Level Pressure  
Sea Level Pressure 30.42 in    
Wind  
Wind Speed 4 mph (NE)    
Max Wind Speed 10 mph    
Max Gust Speed 18 mph    
Visibility 10 miles    
Events      
Averages and records for this station are not official NWS values.
T = Trace of Precipitation, MM = Missing Value Source: NWS Daily Summary

Daily Weather History Graph

Daily Weather History Graph

Search for Another Location

Airport or City:

Trip Planner

Search our weather history database for the weather conditions in past years. The results will help you decide how hot, cold, wet, or windy it might be!

Date:

Astronomy

Nov. 17, 2012 Rise Set
Actual Time 6:25 AM CST 4:44 PM CST
Civil Twilight 5:59 AM CST 5:11 PM CST
Nautical Twilight 5:28 AM CST 5:42 PM CST
Astronomical Twilight 4:58 AM CST 6:11 PM CST
Moon 10:10 AM CST (11/17) 8:53 PM CST (11/17)
Length of Visible Light 11h 12m
Length of Day
10h 19m
Waxing Crescent, 20% of the Moon is Illuminated
Nov 17
Waxing Crescent
Nov 20
First Quarter
Nov 28
Full
Dec 6
Last Quarter
Dec 13
New

Hourly Weather History & Observations

Time (CST) Temp. Windchill Dew Point Humidity Pressure Visibility Wind Dir Wind Speed Gust Speed Precip Events Conditions
12:56 AM 39.9 °F 37.8 °F 29.1 °F 65% 30.39 in 10.0 mi North 3.5 mph - N/A   Clear
1:56 AM 36.0 °F 33.3 °F 29.1 °F 76% 30.40 in 10.0 mi North 3.5 mph - N/A   Clear
2:56 AM 37.9 °F 34.4 °F 29.1 °F 71% 30.40 in 10.0 mi NNE 4.6 mph - N/A   Clear
3:56 AM 34.0 °F 31.0 °F 29.1 °F 82% 30.40 in 10.0 mi NNE 3.5 mph - N/A   Clear
4:56 AM 32.9 °F 28.5 °F 29.1 °F 86% 30.41 in 10.0 mi ENE 4.6 mph - N/A   Clear
5:56 AM 31.1 °F 27.7 °F 29.1 °F 92% 30.43 in 10.0 mi NNE 3.5 mph - N/A   Clear
6:56 AM 31.1 °F 27.7 °F 29.1 °F 92% 30.45 in 8.0 mi East 3.5 mph - N/A   Clear
7:56 AM 43.0 °F 41.3 °F 32.0 °F 65% 30.47 in 10.0 mi ENE 3.5 mph - N/A   Clear
8:56 AM 52.0 °F - 34.9 °F 52% 30.48 in 10.0 mi Variable 6.9 mph - N/A   Clear
9:56 AM 54.9 °F - 31.1 °F 40% 30.48 in 10.0 mi SE 10.4 mph 18.4 mph N/A   Clear
11:56 AM 59.9 °F - 32.0 °F 35% 30.44 in 10.0 mi Variable 3.5 mph - N/A   Clear
12:56 PM 61.0 °F - 32.0 °F 34% 30.42 in 10.0 mi Variable 4.6 mph - N/A   Clear
1:56 PM 63.0 °F - 30.0 °F 29% 30.40 in 10.0 mi Variable 5.8 mph - N/A   Clear
2:56 PM 61.9 °F - 31.1 °F 31% 30.39 in 10.0 mi Variable 5.8 mph - N/A   Clear
3:56 PM 59.9 °F - 32.0 °F 35% 30.40 in 10.0 mi NNE 4.6 mph - N/A   Clear
4:56 PM 52.9 °F - 32.9 °F 47% 30.39 in 10.0 mi NNE 3.5 mph - N/A   Clear
5:56 PM 45.9 °F 44.6 °F 34.9 °F 66% 30.41 in 10.0 mi North 3.5 mph - N/A   Clear
6:56 PM 41.0 °F - 34.9 °F 79% 30.41 in 10.0 mi Calm Calm - N/A   Clear
7:56 PM 37.9 °F - 34.0 °F 86% 30.42 in 10.0 mi Calm Calm - N/A   Clear
8:56 PM 36.0 °F - 32.9 °F 89% 30.41 in 10.0 mi Calm Calm - N/A   Clear
9:56 PM 34.9 °F - 32.9 °F 92% 30.42 in 10.0 mi Calm Calm - N/A   Clear
10:56 PM 32.9 °F - 32.0 °F 96% 30.42 in 10.0 mi Calm Calm - N/A   Clear
11:56 PM 32.9 °F - 32.0 °F 96% 30.42 in 10.0 mi Calm Calm - N/A   Clear